Location: Unspecified
(0.0000°N, 0.0000°E)
Time: 08:22:35
(UTC+00:00)

Kosmos-648 - Pass Details

Date: 10 July 2022
Orbit: 1437 x 1489 km, 74.0° (Epoch: 16 August)

Event Time Altitude Azimuth Distance (km) Brightness Sun altitude
Rises 19:11:32 0° 355° (N) 4,601 ? -15.3°
Reaches altitude 10° 19:14:29 10° 358° (N) 3,623 ? -15.9°
Maximum altitude 19:23:12 65° 78° (ENE) 1,608 ? -17.9°
Enters shadow 19:30:50 14° 157° (SSE) 3,273 ? -19.7°
